Regional Weather Roundup
Issued by NWS

Home | Current Version | Previous Version | Graphics & Text | Print | Product List | Glossary On
Versions: 1 2 3 4 5 6 7 8 9 10 11 12 13 14 15 16 17 18 19 20 21 22 23 24 25 26 27 28 29 30 31 32 33 34 35 36 37 38 39 40 41 42 43 44
000
ASUS45 KBOU 200610
RWRCO

WEATHER ROUNDUP FOR COLORADO
NATIONAL WEATHER SERVICE PUEBLO CO
1200 AM MDT FRI APR 20 2018

NOTE: "FAIR" INDICATES FEW OR NO CLOUDS BELOW 12000 FEET WITH NO
SIGNIFICANT WEATHER AND/OR OBSTRUCTIONS TO VISIBILITY.

COZ001>005-013-030-031-200700-
...NORTHWEST COLORADO...

CITY           SKY/WX    TMP DP  RH WIND       PRES   REMARKS
CRAIG          CLOUDY    53  31  42 SE17      29.84R
HAYDEN         CLOUDY    50  30  46 SE16      29.88S
MEEKER         LGT RAIN  52  33  48 SW13G23   29.83R
RABBIT EARS PA NOT AVBL
STEAMBOAT SPGS MOCLDY    49  28  44 CALM      29.88F
WALDEN         FAIR      37  18  44 E6        29.97F
$$

COZ006>008-011-200700-
...WEST CENTRAL VALLEYS...

CITY           SKY/WX    TMP DP  RH WIND       PRES   REMARKS
GRAND JUNCTION CLOUDY    64  28  25 SE24      29.66S
MONTROSE       CLOUDY    55  31  39 SE17G33   29.81R
EAGLE          CLOUDY    53  28  38 SE12G21   29.87S
RIFLE          CLOUDY    57  30  35 NE7       29.76F
DELTA          NOT AVBL
NUCLA          MOCLDY    59   5  11 SW18G26   29.79R
$$

COZ017>023-064>068-200700-
...SOUTHWEST COLORADO...

CITY           SKY/WX    TMP DP  RH WIND       PRES   REMARKS
DURANGO        CLOUDY    58  26  29 S26G37    29.83S
CORTEZ         CLOUDY    54   5  14 SW16      29.84R
PAGOSA SPRINGS CLOUDY    52  20  29 SE6G21    29.93S
TELLURIDE      MIX PCPN  43  29  58 SW3       29.91F
WOLF CREEK PAS CLOUDY    32  21  64 S29G52    30.07F WCI  18
$$

COZ009-010-012-014-032>034-037-058>063-200700-
...CENTRAL COLORADO...

CITY           SKY/WX    TMP DP  RH WIND       PRES   REMARKS
ASPEN          LGT RAIN  50  26  39 S20G33    29.91S
BUENA VISTA    CLOUDY    49  17  27 S14G20    29.99S
COPPER MTN     NOT AVBL
BERTHOUD PASS  FAIR      27  16  63 S37G51    30.12F WCI   9
COTTONWOOD PAS CLOUDY    46  19  34 SE18G25   30.04S
GUNNISON       CLOUDY    44  32  62 SE13      29.96F
KREMMLING      CLOUDY    52  19  28 CALM      29.92F
LEADVILLE      CLOUDY    34  26  72 CALM      30.02F
MONARCH PASS   FLURRIES  30  21  69 S20G29    30.21F WCI  18
SALIDA         FAIR      53  18  25 SE17G28   30.05F
SUNLIGHT       CLOUDY    34  23  64 SE10G25   30.02F WCI  26
WILKERSON PASS MOCLDY    34  12  40 SW8G20    30.15F WCI  27
$$

COZ069>075-200700-
...SAN LUIS VALLEY/SANGRE DE CRISTO MOUNTAINS...

CITY           SKY/WX    TMP DP  RH WIND       PRES   REMARKS
ALAMOSA        MOCLDY    45  22  40 SE13      29.97F
DEL NORTE      FAIR      45  21  38 SE15      29.96F
LA VETA PASS   PTCLDY    36  19  51 S7G18     30.21F
SAGUACHE       NOT AVBL
$$

COZ035-036-038>040-200700-
...NORTHERN COLORADO FRONT RANGE...

CITY           SKY/WX    TMP DP  RH WIND       PRES   REMARKS
DENVER INTL AP MOCLDY    49  21  33 SE15      29.95F
DMNS CITY PARK NOT AVBL
AURORA         MOCLDY    51  21  30 S21G31    29.91F
FRONT RANGE AP FAIR      51  20  29 SE24G33   29.96S
ERIE MUNI ARPT FAIR      52  19  27 SE12      29.97F
BOULDER MUN AP FAIR      46  25  42 N8        29.93F
CENTENNIAL     MOCLDY    50  22  33 S33G48    29.91F
BROOMFIELD     MOCLDY    54  21  28 S3        29.94S
LOVELAND       MOCLDY    46  23  40 E9        29.97S
LONGMONT       FAIR      51  23  34 N12       29.96F
$$

COZ041-046-047-076>085-087-088-200700-
...PIKES PEAK/PALMER DIVIDE AND SOUTHERN FOOTHILLS...

CITY           SKY/WX    TMP DP  RH WIND       PRES   REMARKS
COLO. SPRINGS  MOCLDY    46  22  38 E13       30.01F
A. F. ACADEMY  PTCLDY    47  20  34 SE13      30.01F
SCHRIEVER AFB  NOT AVBL
CHEYENNE MTN   NOT AVBL
ELLICOTT         N/A    N/A N/A N/A SE23G31   29.99F
FALCON         FAIR      39  18  42 E7        30.05F
FORT CARSON    PTCLDY    54  23  30 SE8       29.98F
LIMON          MOCLDY    42  23  46 SE25G37   30.05S
MONUMENT HILL  PTCLDY    41  19  42 SE23G29   30.02F
CANON CITY     FAIR      55  25  30 N13       29.93R
WALSENBURG     FAIR      55  25  30 S10G21    29.99S
TRINIDAD       CLOUDY    55  23  28 S35G51    30.00F
$$

COZ042>045-048>051-090-091-200700-
...NORTHEAST COLORADO...

CITY           SKY/WX    TMP DP  RH WIND       PRES   REMARKS
GREELEY ARPT   PTCLDY    45  25  45 E16       29.98S
AKRON          MOCLDY    41  26  55 SE22G31   30.06F
BURLINGTON     CLOUDY    43  26  51 SE25G35   30.13F
WRAY           FAIR      45  27  49 SE22G28   30.15F
YUMA           NOT AVBL
STERLING       NOT AVBL
HOLYOKE        FAIR      45  27  49 SE21G26   30.16F
FORT MORGAN    FAIR      46  22  40 E20G31    30.04F
$$

COZ086-089-092>099-200700-
...SOUTHEAST COLORADO...

CITY           SKY/WX    TMP DP  RH WIND       PRES   REMARKS
PUEBLO         MOCLDY    60  27  28 SE15      29.95S
LA JUNTA       MOCLDY    55  21  26 E16       30.03F
LAMAR          CLOUDY    52  24  33 SE21G31   30.08F
SPRINGFIELD      N/A     49  24  37 S31G40    30.11F
$$





USA.gov is the U.S. government's official web portal to all federal, state and local government web resources and services.